This is the latest recevied weather packets stored in our database for station/object KB1ZFK. If no packets are shown the sender has not sent any weather packets the latest 10 day(s).
| Time | Temp. | Humidity | Pressure | Rain* | Wind** | Luminosity | Snow |
|---|---|---|---|---|---|---|---|
| 1777640609 | 8.89° C | 72% | 1009.5 hPa | 0 mm | - | 411 W/m² | - |
| 1777640305 | 8.33° C | 70% | 1009.3 hPa | 0 mm | - | 391 W/m² | - |
| 1777640002 | 7.78° C | 73% | 1009.4 hPa | 0 mm | - | 367 W/m² | - |
| 1777639699 | 7.78° C | 73% | 1009.4 hPa | 0 mm | - | 347 W/m² | - |
| 1777639396 | 7.78° C | 73% | 1009.5 hPa | 0 mm | - | 345 W/m² | - |
| 1777639091 | 7.78° C | 74% | 1009.4 hPa | 0 mm | - | 334 W/m² | - |
| 1777638789 | 7.78° C | 80% | 1009.5 hPa | 0 mm | - | 314 W/m² | - |
| 1777638484 | 7.22° C | 77% | 1009.6 hPa | 0 mm | - | 292 W/m² | - |
| 1777638181 | 7.22° C | 75% | 1009.5 hPa | 0 mm | - | 264 W/m² | - |
| 1777637876 | 7.22° C | 82% | 1009.4 hPa | 0 mm | - | 266 W/m² | - |
| 1777637573 | 6.67° C | 81% | 1009.4 hPa | 0 mm | - | 178 W/m² | - |
| 1777637271 | 6.67° C | 84% | 1009.4 hPa | 0 mm | - | 163 W/m² | - |
| 1777636967 | 6.11° C | 87% | 1009.5 hPa | 0 mm | - | 69 W/m² | - |
| 1777636663 | 6.11° C | 87% | 1009.3 hPa | 0 mm | - | 43 W/m² | - |
| 1777636360 | 5.56° C | 90% | 1009.4 hPa | 0 mm | - | 37 W/m² | - |
| 1777636059 | 5.56° C | 89% | 1009.3 hPa | 0 mm | - | 36 W/m² | - |
| 1777635756 | 5.56° C | 89% | 1009.3 hPa | 0 mm | - | 34 W/m² | - |
| 1777635453 | 5° C | 89% | 1009.4 hPa | 0 mm | - | 34 W/m² | - |
| 1777635150 | 5° C | 90% | 1009.2 hPa | 0 mm | - | 32 W/m² | - |
| 1777634845 | 5° C | 91% | 1009.3 hPa | 0 mm | - | 31 W/m² | - |
| 1777634543 | 5° C | 92% | 1009.3 hPa | 0 mm | - | 30 W/m² | - |
| 1777634240 | 4.44° C | 93% | 1009.3 hPa | 0 mm | - | 29 W/m² | - |
| 1777633936 | 4.44° C | 93% | 1009.2 hPa | 0 mm | - | 28 W/m² | - |
| 1777633634 | 3.89° C | 94% | 1009.1 hPa | 0 mm | - | 27 W/m² | - |
| 1777633332 | 3.89° C | 96% | 1008.9 hPa | 0 mm | - | 26 W/m² | - |
* Rain latest hour (hover to see other rain measurements)
** Current wind speed in m/s (hover to see current wind gust speed)